When you browse on this site, cookies collect data to enhance your experience and personalize the content and advertising you see.
Visit our Privacy Policy to learn more. By continuing to use the site, you agree to this use of cookies and data.
  • In Denmark
  • List of Countries
  • For 7 days
  • Water Temperature
  • Weather Map
  • Weather Widgets
  • user-avatar
    Login

    Hourly Weather Melbourne

    Today, 19 January, Sunday

    Time Temperature Precipitation Wind Pressure Humidity
    00:00 +22°C° 0.1 mm 1 mps 753 mmHg 78%
    01:00 +21°C° 0.1 mm 1 mps 753 mmHg 82%
    02:00 +21°C° 0 mm 1 mps 752 mmHg 83%
    03:00 +20°C° 0 mm 1 mps 752 mmHg 84%
    04:00 +20°C° 0 mm 1 mps 752 mmHg 86%
    05:00 +21°C° 0 mm 1 mps 752 mmHg 83%
    06:00 +21°C° 0 mm 1 mps 753 mmHg 80%
    07:00 +22°C° 0 mm 1 mps 753 mmHg 78%
    08:00 +25°C° 0 mm 1 mps 753 mmHg 67%
    09:00 +28°C° 0 mm 1 mps 753 mmHg 55%
    10:00 +30°C° 0 mm 1 mps 753 mmHg 50%
    11:00 +30°C° 0.2 mm 2 mps 752 mmHg 46%
    12:00 +31°C° 0.2 mm 2 mps 752 mmHg 43%
    13:00 +32°C° 0.2 mm 2 mps 751 mmHg 39%
    14:00 +31°C° 0.3 mm 3 mps 751 mmHg 43%
    15:00 +30°C° 0.3 mm 4 mps 750 mmHg 48%
    16:00 +29°C° 0 mm 4 mps 750 mmHg 54%
    17:00 +27°C° 1.1 mm 4 mps 751 mmHg 60%
    18:00 +25°C° 1.1 mm 4 mps 751 mmHg 66%
    19:00 +22°C° 1.1 mm 5 mps 752 mmHg 73%
    20:00 +22°C° 0.1 mm 3 mps 752 mmHg 73%
    21:00 +21°C° 0.1 mm 2 mps 752 mmHg 73%
    22:00 +21°C° 0 mm 3 mps 752 mmHg 73%
    23:00 +21°C° 0 mm 2 mps 752 mmHg 75%

    Tomorrow, 20 January, Monday

    Time Temperature Precipitation Wind Pressure Humidity
    00:00 +20°C° 0 mm 2 mps 752 mmHg 76%
    01:00 +21°C° 0 mm 1 mps 751 mmHg 78%
    02:00 +19°C° 0.1 mm 2 mps 751 mmHg 80%
    03:00 +19°C° 0.1 mm 2 mps 751 mmHg 83%
    04:00 +19°C° 0.1 mm 3 mps 751 mmHg 86%
    05:00 +19°C° 0.1 mm 3 mps 751 mmHg 86%
    06:00 +20°C° 0.1 mm 3 mps 751 mmHg 85%
    07:00 +20°C° 0.1 mm 3 mps 751 mmHg 85%
    08:00 +21°C° 0.2 mm 3 mps 752 mmHg 81%
    09:00 +21°C° 0.2 mm 3 mps 752 mmHg 76%
    10:00 +22°C° 0.2 mm 3 mps 752 mmHg 72%
    11:00 +23°C° 1.2 mm 4 mps 751 mmHg 71%
    12:00 +23°C° 1.2 mm 5 mps 751 mmHg 71%
    13:00 +24°C° 1.2 mm 6 mps 751 mmHg 70%
    14:00 +22°C° 1.1 mm 7 mps 751 mmHg 75%
    15:00 +21°C° 1.1 mm 7 mps 751 mmHg 79%
    16:00 +20°C° 1.1 mm 7 mps 750 mmHg 84%
    17:00 +18°C° 0.7 mm 7 mps 751 mmHg 85%
    18:00 +19°C° 0.7 mm 6 mps 751 mmHg 87%
    19:00 +17°C° 0.7 mm 6 mps 752 mmHg 88%
    20:00 +17°C° 1 mm 6 mps 752 mmHg 89%
    21:00 +17°C° 1 mm 6 mps 753 mmHg 89%
    22:00 +17°C° 1 mm 5 mps 753 mmHg 90%
    23:00 +17°C° 0.6 mm 5 mps 753 mmHg 89%

    Day after tomorrow, 21 January, Tuesday

    Time Temperature Precipitation Wind Pressure Humidity
    00:00 +16°C° 0.6 mm 5 mps 753 mmHg 89%
    01:00 +16°C° 0.6 mm 5 mps 753 mmHg 88%
    02:00 +16°C° 0.2 mm 5 mps 753 mmHg 88%
    03:00 +16°C° 0.2 mm 5 mps 753 mmHg 87%
    04:00 +15°C° 0.2 mm 4 mps 753 mmHg 87%
    05:00 +15°C° 0 mm 4 mps 754 mmHg 85%
    06:00 +15°C° 0 mm 4 mps 754 mmHg 84%
    07:00 +15°C° 0 mm 4 mps 755 mmHg 82%
    08:00 +17°C° 0 mm 3 mps 755 mmHg 78%
    09:00 +17°C° 0 mm 3 mps 755 mmHg 74%
    10:00 +18°C° 0 mm 2 mps 755 mmHg 70%
    11:00 +20°C° 0 mm 2 mps 755 mmHg 64%
    12:00 +21°C° 0 mm 2 mps 754 mmHg 57%
    13:00 +24°C° 0 mm 2 mps 754 mmHg 51%
    14:00 +25°C° 0 mm 2 mps 754 mmHg 49%
    15:00 +25°C° 0 mm 2 mps 753 mmHg 47%
    16:00 +26°C° 0 mm 3 mps 753 mmHg 45%
    17:00 +25°C° 0 mm 3 mps 753 mmHg 51%
    18:00 +22°C° 0 mm 3 mps 753 mmHg 57%
    19:00 +21°C° 0 mm 4 mps 754 mmHg 63%
    20:00 +19°C° 0 mm 3 mps 754 mmHg 67%
    21:00 +18°C° 0 mm 2 mps 754 mmHg 71%
    22:00 +18°C° 0 mm 1 mps 754 mmHg 76%
    23:00 +18°C° 0 mm 1 mps 753 mmHg 76%

    22 January, Wednesday

    Time Temperature Precipitation Wind Pressure Humidity
    00:00 +18°C° 0 mm 1 mps 753 mmHg 77%
    01:00 +18°C° 0 mm 1 mps 753 mmHg 78%
    02:00 +17°C° 0 mm 2 mps 752 mmHg 73%
    03:00 +18°C° 0 mm 3 mps 752 mmHg 68%
    04:00 +18°C° 0 mm 3 mps 751 mmHg 63%
    05:00 +19°C° 0 mm 4 mps 751 mmHg 59%
    06:00 +21°C° 0 mm 5 mps 751 mmHg 55%
    07:00 +22°C° 0 mm 6 mps 751 mmHg 50%
    08:00 +24°C° 0 mm 7 mps 750 mmHg 45%
    09:00 +27°C° 0 mm 7 mps 749 mmHg 40%
    10:00 +29°C° 0 mm 8 mps 749 mmHg 35%
    11:00 +32°C° 0 mm 8 mps 748 mmHg 30%
    12:00 +34°C° 0 mm 9 mps 747 mmHg 25%
    13:00 +37°C° 0 mm 9 mps 746 mmHg 20%
    14:00 +37°C° 0 mm 8 mps 745 mmHg 20%
    15:00 +37°C° 0 mm 8 mps 745 mmHg 20%
    16:00 +36°C° 0 mm 7 mps 744 mmHg 20%
    17:00 +33°C° 0.1 mm 6 mps 744 mmHg 30%
    18:00 +29°C° 0.1 mm 6 mps 744 mmHg 40%
    19:00 +27°C° 0.1 mm 5 mps 745 mmHg 49%
    20:00 +25°C° 1.9 mm 4 mps 745 mmHg 60%
    21:00 +23°C° 1.9 mm 2 mps 746 mmHg 71%
    22:00 +21°C° 1.9 mm 1 mps 747 mmHg 82%
    23:00 +19°C° 1.8 mm 2 mps 747 mmHg 79%

    23 January, Thursday

    Time Temperature Precipitation Wind Pressure Humidity
    00:00 +18°C° 1.8 mm 3 mps 747 mmHg 76%
    01:00 +17°C° 1.8 mm 4 mps 747 mmHg 73%
    02:00 +17°C° 0.1 mm 4 mps 747 mmHg 70%
    03:00 +17°C° 0.1 mm 4 mps 747 mmHg 68%
    04:00 +15°C° 0.1 mm 4 mps 748 mmHg 65%
    05:00 +15°C° 0 mm 4 mps 748 mmHg 64%
    06:00 +15°C° 0 mm 4 mps 748 mmHg 64%
    07:00 +15°C° 0 mm 4 mps 749 mmHg 63%
    08:00 +16°C° 0.1 mm 5 mps 749 mmHg 57%
    09:00 +19°C° 0.1 mm 6 mps 749 mmHg 50%
    10:00 +20°C° 0.1 mm 6 mps 749 mmHg 43%
    11:00 +21°C° 0 mm 6 mps 749 mmHg 42%
    12:00 +21°C° 0 mm 6 mps 749 mmHg 40%
    13:00 +21°C° 0 mm 6 mps 749 mmHg 38%
    14:00 +21°C° 0 mm 6 mps 749 mmHg 39%
    15:00 +21°C° 0 mm 6 mps 749 mmHg 39%
    16:00 +21°C° 0 mm 6 mps 749 mmHg 40%
    17:00 +20°C° 0 mm 5 mps 750 mmHg 42%
    18:00 +20°C° 0 mm 5 mps 751 mmHg 43%
    19:00 +19°C° 0 mm 5 mps 751 mmHg 45%
    20:00 +19°C° 0 mm 5 mps 752 mmHg 46%
    21:00 +18°C° 0 mm 4 mps 752 mmHg 48%
    22:00 +17°C° 0 mm 4 mps 753 mmHg 49%
    23:00 +15°C° 0 mm 4 mps 753 mmHg 50%

    24 January, Friday

    Time Temperature Precipitation Wind Pressure Humidity
    00:00 +15°C° 0 mm 4 mps 753 mmHg 51%
    01:00 +14°C° 0 mm 5 mps 753 mmHg 51%
    02:00 +14°C° 0 mm 4 mps 753 mmHg 54%
    03:00 +14°C° 0 mm 4 mps 753 mmHg 56%
    04:00 +13°C° 0 mm 4 mps 753 mmHg 58%
    05:00 +13°C° 0 mm 4 mps 753 mmHg 58%
    06:00 +14°C° 0 mm 4 mps 754 mmHg 58%
    07:00 +14°C° 0 mm 4 mps 754 mmHg 58%
    08:00 +18°C° 0 mm 4 mps 754 mmHg 53%
    09:00 +20°C° 0 mm 4 mps 754 mmHg 48%
    10:00 +22°C° 0 mm 4 mps 755 mmHg 43%
    11:00 +23°C° 0 mm 4 mps 754 mmHg 42%
    12:00 +25°C° 0 mm 4 mps 754 mmHg 41%
    13:00 +26°C° 0 mm 4 mps 754 mmHg 39%
    14:00 +27°C° 0 mm 4 mps 754 mmHg 40%
    15:00 +27°C° 0 mm 5 mps 754 mmHg 40%
    16:00 +27°C° 0 mm 5 mps 754 mmHg 40%
    17:00 +26°C° 0 mm 4 mps 754 mmHg 43%
    18:00 +26°C° 0 mm 4 mps 755 mmHg 45%
    19:00 +25°C° 0 mm 3 mps 755 mmHg 48%
    20:00 +24°C° 0 mm 3 mps 756 mmHg 52%
    21:00 +22°C° 0 mm 3 mps 756 mmHg 56%
    22:00 +21°C° 0 mm 2 mps 756 mmHg 60%
    23:00 +20°C° 0 mm 2 mps 756 mmHg 64%
    Show more